GFSMW_prec_cloud_270.txt.gz
Cloud_Cover
100 26 1 98 100 100 100 77 100 100 4 81 100 100 100 100 100 92 69 52 25 100 10 44 40 5 4 6 0 0 1 0 0 5 22 26 91 100 97 34 5 72 100
75 75 45 0 5 74 96 46 99 96 26 5 100 100 100 100 99 4 93 96 60 98 100 6 18 5 5 5 5 5 26 5 0 0 6 47 14 1 7 5 5 71 27
1 6 5 0 0 2 5 5 7 39 100 56 100 100 100 100 62 88 62 61 12 5 5 71 74 5 5 4 5 7 5 76 5 4 5 53 82 45 23 21 34 25 42
0 0 5 79 3 1 0 0 1 11 100 30 100 100 100 100 100 92 33 0 5 5 5 5 31 5 5 5 0 3 13 25 7 5 5 5 6 69 100 81 63 69 33
0 0 0 2 94 32 4 1 2 5 75 100 80 86 100 100 100 100 9 0 0 36 6 5 5 6 3 2 1 5 0 5 91 67 5 5 6 85 97 79 66 100 98
0 0 0 0 0 15 86 5 5 5 5 34 100 36 66 100 100 100 83 40 5 1 45 70 34 42 5 5 5 2 5 3 12 100 78 31 49 48 79 24 48 100 64
0 0 0 0 0 0 0 5 6 61 6 5 38 100 81 100 100 94 96 100 35 5 5 100 100 10 28 5 5 5 5 5 5 43 21 48 39 100 23 5 28 25 100
4 1 0 0 0 0 0 0 1 5 97 33 64 56 100 100 100 100 100 77 15 41 5 5 39 100 55 5 8 16 5 7 75 26 92 56 15 68 74 5 6 12 28
95 6 5 1 17 2 4 16 30 4 5 83 97 97 100 100 100 100 100 100 100 94 93 34 17 100 100 100 14 5 55 10 71 100 100 100 41 28 98 92 14 5 20
85 91 97 9 54 14 15 76 24 46 5 5 93 93 100 100 100 100 100 100 100 100 100 77 97 67 72 46 59 5 5 8 65 98 100 100 99 73 100 100 100 82 44
100 100 100 100 74 9 4 15 39 57 84 10 18 99 100 100 99 100 100 100 100 100 100 96 21 80 66 99 95 64 72 97 37 82 96 84 26 100 100 100 100 100 100
42 71 100 66 100 11 25 32 26 66 96 88 67 92 99 100 100 53 86 100 100 100 100 100 100 100 100 100 100 100 100 100 98 29 50 96 63 46 52 100 100 100 100
5 5 22 96 95 39 5 5 69 18 88 100 100 100 100 99 91 97 99 100 100 100 100 100 100 100 100 100 100 100 100 100 100 100 81 10 79 100 89 99 100 100 100
5 5 8 5 2 5 5 5 5 15 48 100 100 100 100 100 69 92 100 100 100 100 100 100 100 100 100 100 100 100 100 100 100 100 100 92 75 70 100 100 100 100 98
5 5 5 5 0 1 5 5 5 10 96 100 100 100 100 100 100 82 100 100 100 100 100 100 100 100 100 100 100 100 100 94 100 100 100 100 100 100 83 59 94 99 98
5 5 5 5 5 5 4 5 80 5 62 100 100 100 100 91 100 66 100 100 100 100 100 100 100 100 100 100 100 100 100 100 100 100 100 100 100 100 100 76 77 100 100
63 92 100 80 88 70 5 28 97 88 100 100 100 100 100 100 100 100 100 100 100 100 100 100 100 100 100 100 100 100 100 100 100 100 100 100 100 100 100 100 100 100 100
100 100 100 100 100 100 100 100 99 100 100 100 100 100 100 100 100 99 61 100 100 100 100 100 100 100 100 100 100 100 100 100 100 100 100 100 100 100 100 100 100 100 100
100 100 90 100 100 100 100 100 100 100 100 100 100 100 100 100 100 100 65 100 100 100 100 100 100 100 100 100 100 100 100 100 100 100 100 100 100 100 100 100 100 100 100
100 100 96 92 100 100 100 100 100 100 100 100 70 100 100 100 100 100 100 100 100 100 100 100 100 100 100 100 100 100 100 100 100 100 100 100 100 100 100 100 100 100 100
99 100 100 77 100 100 100 100 100 100 100 100 100 100 100 82 94 100 100 100 100 100 100 100 100 100 100 100 100 100 100 100 100 100 100 100 100 100 100 100 100 100 100
25 100 100 71 100 100 100 100 100 100 100 100 100 100 88 89 7 77 100 100 100 100 100 100 100 98 93 100 100 100 100 100 100 100 100 100 100 100 100 100 100 100 100
5 40 100 87 41 99 100 100 100 100 100 100 100 100 100 90 70 10 57 100 100 100 100 100 100 100 100 100 90 97 100 99 100 100 100 100 100 100 100 100 100 100 100
3 5 5 38 77 5 68 100 100 100 100 100 100 100 100 100 76 100 58 98 95 100 100 100 100 100 100 100 100 100 100 100 100 100 100 100 100 100 100 100 100 100 100
5 0 1 5 76 49 5 100 100 100 100 100 100 100 100 100 100 92 86 87 29 96 100 100 100 100 100 100 100 100 99 100 100 100 100 100 100 100 100 100 100 100 100
5 5 2 5 5 33 5 12 97 100 100 100 100 100 100 100 100 100 100 100 91 54 29 66 100 100 100 100 100 100 100 100 100 100 100 100 100 100 100 100 100 100 100

GFSMW_prec_cloud_276.txt.gz
Cloud_Cover
0 5 66 25 5 7 89 28 98 100 100 100 100 100 100 100 100 100 100 100 100 50 54 95 99 83 100 100 100 4 4 0 0 0 7 11 1 0 3 5 5 32 32
95 2 2 5 5 12 85 100 90 100 100 100 100 100 100 100 100 100 100 100 100 98 100 72 100 100 100 100 100 64 4 0 0 1 5 8 5 29 3 1 10 32 54
1 4 1 0 0 36 37 69 100 99 100 100 100 100 100 100 100 100 100 100 100 100 100 100 100 100 100 100 100 100 6 4 1 0 5 74 6 26 48 54 9 30 61
0 0 0 0 0 0 1 51 25 100 82 28 60 100 100 100 100 100 100 100 100 100 100 100 100 100 87 100 100 100 91 72 5 5 0 5 5 6 90 80 83 45 43
1 0 0 0 0 0 0 0 1 74 100 82 92 100 100 100 100 100 100 100 100 100 100 100 100 100 100 100 97 88 100 96 98 11 5 5 5 5 5 33 64 100 100
68 10 1 0 0 0 0 0 0 0 91 100 100 100 100 100 100 100 100 100 100 100 100 100 100 100 100 100 100 95 87 74 66 84 16 8 5 21 5 5 44 52 56
51 61 5 0 0 0 0 0 0 0 0 100 100 100 95 89 100 99 100 100 100 100 100 100 100 100 100 100 100 95 100 25 10 34 75 63 59 5 5 5 5 36 27
100 100 65 5 0 0 0 0 0 2 3 0 58 100 100 100 100 100 96 100 100 100 100 100 100 100 100 100 79 73 100 100 91 99 53 36 41 5 6 44 46 12 16
79 96 83 78 100 48 0 0 0 0 33 40 5 88 100 99 100 100 100 99 100 100 100 100 100 100 100 99 100 100 100 100 86 100 99 61 20 50 18 5 62 45 82
12 5 46 57 53 100 4 0 0 0 2 64 45 31 96 100 96 68 100 100 83 100 100 100 100 100 100 99 100 100 100 87 68 63 63 100 96 17 56 57 74 59 48
88 7 72 88 98 15 5 4 1 0 1 100 93 13 5 87 99 98 40 92 79 78 100 100 100 100 100 100 100 99 98 51 27 30 98 100 100 91 66 100 100 100 100
100 96 6 12 100 97 79 5 5 0 0 2 97 72 5 32 100 100 76 29 66 92 100 100 100 100 98 100 100 100 94 57 89 46 84 70 100 100 100 100 100 100 100
5 92 66 37 17 39 97 88 37 4 5 0 14 97 71 0 0 0 73 96 73 97 100 100 100 100 100 100 100 100 100 100 100 100 34 96 97 100 100 100 100 100 100
5 9 51 37 42 21 11 0 4 36 67 5 0 0 26 87 1 58 10 71 78 92 100 100 100 100 100 100 100 96 100 100 100 100 100 100 100 100 100 100 100 100 100
58 5 5 5 5 5 5 10 5 5 16 56 100 7 0 2 5 5 5 4 91 46 96 100 100 100 100 100 100 90 97 100 100 100 100 100 100 100 100 100 100 100 100
5 5 5 5 5 5 5 5 5 4 0 5 99 100 100 6 0 5 5 5 14 76 96 100 100 100 100 100 100 99 70 100 100 100 100 100 100 100 100 100 100 100 100
4 5 5 5 5 4 5 67 6 14 86 47 0 12 60 41 5 4 5 73 45 86 100 100 100 100 100 100 100 100 100 72 100 100 100 100 100 99 94 95 99 100 100
0 4 5 5 5 4 1 0 31 38 43 63 32 6 14 5 4 6 5 83 98 100 100 100 100 100 100 100 100 100 100 100 61 100 100 100 100 100 100 100 98 100 100
2 5 5 5 5 5 5 3 5 65 0 50 100 98 100 80 17 45 32 69 72 58 100 100 100 100 100 100 100 100 100 100 100 100 100 100 98 100 100 100 100 100 100
0 5 7 7 9 8 1 0 1 5 5 12 99 100 74 100 98 45 78 87 100 100 56 100 100 100 100 100 100 100 100 100 100 100 100 100 96 100 100 100 100 100 100
0 5 42 57 5 3 0 0 0 3 5 5 81 100 100 100 100 100 95 90 100 100 100 100 100 100 100 100 100 100 100 100 100 100 100 100 100 100 100 100 100 100 100
0 3 5 5 5 0 0 0 2 1 5 5 5 68 99 98 100 100 100 100 100 100 100 100 100 100 100 100 100 100 100 100 100 100 100 100 100 100 100 100 100 100 100
0 3 5 5 5 5 5 5 5 5 5 5 5 37 87 100 100 100 100 100 100 100 100 100 100 100 100 100 100 100 100 100 100 100 100 100 100 100 100 100 100 100 100
0 2 5 5 1 0 1 1 5 5 5 5 5 72 100 100 100 100 100 100 100 100 100 100 100 100 100 99 100 100 100 100 100 100 100 100 100 100 100 100 100 100 100
3 5 1 5 5 4 4 2 5 5 5 5 5 13 99 100 100 100 100 100 100 100 100 100 100 100 100 100 92 96 100 100 100 100 100 100 100 100 100 100 100 100 100
4 0 4 5 5 5 5 5 5 5 5 17 5 5 47 100 100 100 100 100 100 100 100 100 100 100 100 100 100 84 85 100 100 100 100 100 100 100 100 100 100 100 100

GFSMW_prec_cloud_279.txt.gz
Cloud_Cover
0 13 98 100 4 99 60 5 5 4 95 100 100 100 100 100 100 100 100 100 100 100 100 100 100 99 62 90 100 79 100 10 17 5 4 1 0 0 0 0 5 1 0
0 0 0 3 77 99 31 93 93 12 5 100 100 100 100 100 100 100 100 100 100 100 100 100 100 100 100 100 98 91 100 64 6 70 8 31 5 5 5 0 0 0 0
4 3 0 0 0 1 14 91 94 96 47 6 96 100 100 100 100 100 100 100 100 100 100 100 100 100 100 100 96 66 100 90 6 5 5 60 52 5 5 4 5 4 3
0 0 0 0 0 0 0 0 0 86 100 85 5 36 94 100 100 100 100 100 100 100 100 100 100 100 100 100 100 89 100 100 100 4 5 6 44 5 5 14 11 5 5
0 0 0 0 0 0 0 0 0 0 10 100 97 49 58 62 94 100 100 100 100 61 100 100 100 100 100 100 100 100 100 100 100 37 6 2 5 3 5 5 50 70 24
0 0 0 0 0 0 0 0 0 0 0 0 77 100 73 100 99 100 100 100 100 100 100 100 100 100 100 100 100 100 100 100 100 100 100 72 27 7 2 9 62 5 65
0 0 0 0 0 0 0 0 0 0 0 0 0 50 100 100 100 100 100 100 100 100 100 100 100 100 100 100 100 50 100 100 100 100 100 99 83 46 7 37 6 77 27
2 1 0 0 0 0 0 0 0 0 0 0 0 0 12 44 99 100 100 100 100 100 100 100 100 100 100 100 100 100 100 100 100 92 100 100 100 74 100 95 7 73 64
40 5 5 0 0 0 0 0 2 2 0 0 0 0 0 1 53 94 99 46 95 99 100 100 100 100 100 100 100 100 100 98 90 92 13 24 100 100 100 100 98 74 98
78 35 5 5 1 0 0 3 5 5 4 0 0 0 0 0 6 52 100 94 87 100 97 92 100 100 100 100 100 100 100 100 100 92 96 62 100 100 100 100 6 80 100
0 68 47 25 5 5 4 2 33 60 5 5 3 0 3 1 0 29 46 79 73 100 100 82 100 100 100 100 100 100 100 100 100 94 100 100 100 75 5 45 46 26 91
0 0 4 2 10 79 76 5 69 100 70 5 46 60 0 5 4 0 2 6 23 100 79 62 77 100 100 100 100 100 100 100 100 100 100 100 100 100 91 9 57 80 54
0 5 5 3 5 5 89 88 9 83 100 100 52 5 82 0 5 4 5 56 21 44 77 68 52 99 100 100 100 100 100 100 100 100 100 100 100 100 100 100 24 88 68
0 5 5 5 5 5 5 45 5 5 80 96 60 40 6 0 4 10 22 50 91 57 68 93 83 92 100 100 100 100 100 100 100 100 100 100 100 100 100 100 100 100 84
0 0 4 4 1 3 5 5 5 5 1 1 18 10 90 49 1 2 0 6 28 32 78 89 75 85 100 100 100 100 100 100 100 100 100 100 100 100 100 100 100 100 100
0 0 0 0 0 0 0 0 0 0 0 0 0 3 4 9 9 8 0 0 0 16 87 82 98 93 97 100 100 100 88 100 100 100 100 100 100 100 100 100 100 100 100
0 0 0 0 0 5 4 0 4 0 0 0 5 5 5 5 5 10 9 5 3 48 53 78 71 72 99 89 100 100 100 100 100 100 100 100 100 97 100 100 100 100 100
0 0 0 0 5 5 5 5 0 0 0 0 5 5 5 5 5 5 7 9 27 76 99 90 63 99 98 78 96 80 89 100 100 100 100 100 100 100 100 100 100 100 100
0 0 0 5 5 5 5 0 0 0 0 5 5 5 5 5 25 82 36 39 96 100 100 100 99 84 56 75 100 80 99 100 100 100 100 100 100 100 100 100 100 99 100
0 0 0 4 5 5 1 0 0 0 2 5 5 5 5 5 19 99 100 100 100 100 100 98 73 97 81 35 85 100 80 81 100 100 100 100 100 100 100 100 100 100 94
0 0 0 0 0 0 0 0 0 4 5 5 5 5 6 5 10 44 100 100 100 88 100 100 72 92 99 78 100 95 100 100 100 96 95 100 94 100 100 100 100 100 100
0 0 0 0 0 0 0 0 2 0 1 5 5 5 10 15 8 50 100 100 100 98 80 98 81 100 100 100 100 99 100 100 100 96 100 100 88 100 100 100 100 100 100
5 5 0 0 0 0 2 0 0 0 5 5 5 5 5 6 28 95 100 100 100 100 100 100 100 99 100 100 100 100 100 86 95 88 100 88 100 100 100 100 100 100 100
5 5 5 0 2 0 0 0 0 2 5 5 5 5 5 12 60 100 100 100 100 100 100 100 100 100 98 100 100 100 100 100 100 96 100 100 100 100 100 100 100 100 100
57 5 5 5 5 5 0 0 0 4 5 5 5 5 5 12 78 94 100 100 100 100 100 100 100 100 100 100 100 100 100 100 100 100 98 100 100 100 100 100 100 100 100
69 40 5 5 5 5 1 0 4 5 5 5 5 5 5 5 75 68 91 89 100 100 100 100 100 100 100 100 100 100 100 100 100 100 100 100 100 100 100 100 100 100 100

GFSMW_prec_cloud_282.txt.gz
Cloud_Cover
100 100 76 5 3 4 5 5 2 4 32 5 40 92 100 100 98 100 100 100 100 100 100 100 100 100 27 5 63 97 97 29 7 5 5 4 4 4 1 7 5 5 1
3 50 73 98 100 69 6 5 2 0 4 5 2 36 86 100 100 100 100 100 100 100 100 100 100 100 100 100 94 22 100 97 93 100 71 5 5 5 4 5 5 5 5
0 0 0 0 0 23 72 100 95 71 4 5 5 5 20 69 100 100 100 100 99 100 100 100 97 100 100 100 100 100 48 100 100 100 100 61 5 5 1 6 5 5 29
1 0 0 0 0 0 0 0 17 70 100 91 5 15 40 65 96 100 100 100 100 100 99 100 100 100 100 100 100 100 99 74 100 100 100 97 69 24 5 5 6 34 73
0 0 0 0 0 3 0 0 0 0 0 95 100 91 15 40 99 100 100 100 100 100 100 100 100 100 100 100 100 100 100 100 100 100 60 100 100 100 26 5 6 5 19
0 0 4 1 0 0 1 0 0 0 0 0 8 95 100 58 30 98 100 100 100 100 100 100 100 100 100 100 100 100 100 100 100 100 93 57 100 100 100 24 52 7 18
0 0 4 0 0 0 0 0 0 0 0 0 0 0 22 75 42 54 81 100 100 100 100 100 100 100 100 100 100 100 100 99 99 100 100 100 100 100 97 97 86 86 9
0 0 4 0 0 0 0 0 0 0 0 0 0 0 0 0 8 15 48 94 99 100 100 100 100 100 100 100 100 100 100 100 100 100 100 100 100 100 99 30 7 8 8
0 0 6 5 1 3 1 0 0 0 0 0 0 0 0 0 14 19 82 76 90 71 79 100 100 100 100 100 100 100 100 100 100 100 100 100 100 100 100 34 61 20 5
4 5 39 63 5 5 5 0 0 0 0 0 0 0 0 0 2 32 36 42 85 44 72 71 100 100 100 100 100 100 100 100 100 100 100 100 100 100 100 100 100 62 10
5 5 9 94 56 6 5 1 2 0 0 1 1 0 0 0 0 4 46 47 26 89 84 90 92 100 100 100 100 100 100 100 100 100 100 100 100 100 100 100 55 100 97
3 5 5 13 87 8 5 5 2 0 0 0 3 15 0 0 0 0 0 45 59 51 100 100 97 69 100 100 100 100 100 100 100 100 100 100 100 100 100 100 100 22 98
5 5 5 5 5 5 5 5 5 0 0 5 4 10 100 16 1 2 0 0 20 59 52 100 100 100 86 100 100 100 100 100 100 100 100 100 100 100 100 100 100 100 100
5 5 5 5 5 5 5 5 4 0 0 0 5 5 5 66 74 6 0 4 1 33 69 100 100 100 100 100 97 100 100 100 100 100 100 100 100 100 100 100 100 100 100
0 0 5 5 5 5 5 5 5 5 0 0 0 0 0 84 100 86 55 12 3 0 91 85 98 100 100 100 100 86 100 100 100 100 100 100 100 100 100 100 100 100 100
0 0 3 5 5 5 5 5 5 5 5 4 0 0 0 0 5 5 6 40 18 52 5 100 99 99 100 100 100 88 100 100 100 100 100 100 100 100 100 100 100 100 100
0 1 0 2 5 5 5 5 5 5 5 5 4 0 0 0 0 5 5 5 5 5 5 7 71 100 99 89 21 8 76 100 100 100 100 100 100 100 100 100 100 100 100
5 5 1 0 2 5 5 5 5 5 5 5 4 0 0 5 2 5 5 5 5 4 3 5 4 27 89 100 14 15 82 85 94 100 100 100 100 100 100 100 100 100 100
5 7 5 0 0 4 5 5 5 5 5 5 0 0 4 5 5 5 5 5 5 2 4 2 6 8 22 100 99 9 57 91 93 34 89 99 100 100 100 100 100 100 100
4 5 5 0 0 2 3 5 2 3 5 0 0 0 4 5 5 5 5 4 4 0 5 5 5 5 30 86 100 100 52 52 56 76 57 88 99 100 100 100 100 100 100
6 0 5 5 5 5 5 5 2 0 0 0 0 0 5 5 5 5 5 5 3 1 5 5 5 4 39 98 100 100 98 100 70 29 46 84 51 100 100 95 100 100 100
95 86 4 5 5 5 5 5 2 0 0 0 0 0 3 5 5 5 5 5 3 82 100 78 9 68 53 100 100 100 100 100 100 99 85 79 37 74 100 100 97 88 100
8 88 7 5 5 5 5 27 5 5 1 0 0 0 0 1 5 5 5 5 37 100 100 100 100 100 79 100 100 100 100 100 100 100 100 96 90 100 100 49 60 100 100
5 91 6 9 6 5 5 49 36 27 5 3 0 0 4 2 5 5 5 5 72 100 100 99 100 100 100 100 100 100 100 100 99 100 84 98 100 100 100 100 91 100 100
5 15 38 95 46 16 26 11 87 26 5 5 5 2 4 5 5 5 5 5 32 82 64 97 100 100 100 100 90 98 100 90 96 86 88 100 100 100 100 100 100 100 100
5 48 100 100 100 100 100 58 100 93 13 5 5 5 5 5 5 5 5 17 5 5 49 100 100 99 100 94 98 100 100 98 100 96 100 100 100 100 100 100 87 100 100

GFSMW_prec_cloud_285.txt.gz
Cloud_Cover
100 85 39 79 99 85 100 100 84 72 18 54 22 7 100 84 57 24 100 100 100 100 69 94 26 31 94 100 100 91 23 100 7 86 4 5 5 4 5 5 5 5 17
100 100 100 53 30 21 23 37 94 59 5 5 10 14 5 98 100 99 100 100 100 100 100 100 100 61 31 7 88 100 89 8 98 90 39 34 5 5 5 5 5 28 18
75 97 100 100 100 100 99 98 97 100 86 8 5 5 5 5 52 100 99 100 100 100 100 100 100 100 95 88 75 97 100 100 78 89 100 44 17 5 5 4 5 5 58
5 5 1 0 0 2 4 24 89 100 96 80 9 5 4 5 22 20 34 28 87 100 100 100 100 100 100 100 100 67 55 100 100 100 100 100 100 100 95 5 5 5 10
5 5 5 1 5 4 0 0 0 0 0 93 100 32 6 0 2 19 16 34 14 90 100 100 100 100 100 100 100 100 99 39 100 100 100 100 100 100 100 100 36 44 51
0 2 3 51 38 5 1 0 2 0 0 0 0 29 97 50 2 9 15 26 46 34 88 100 100 100 100 100 100 100 100 100 88 96 100 100 92 78 100 100 100 100 19
5 3 5 5 51 34 5 1 2 0 0 0 0 0 0 6 80 29 28 44 34 20 17 91 100 100 100 100 100 100 100 100 100 94 96 100 100 98 72 84 34 66 95
3 5 2 98 100 98 5 5 5 0 0 0 0 0 0 0 1 7 54 71 70 41 13 30 84 100 100 100 100 100 100 100 100 100 100 100 100 96 100 100 99 70 12
5 5 5 58 56 99 35 5 5 5 0 0 0 0 0 0 0 2 5 26 60 22 52 32 84 96 100 100 100 100 100 100 100 100 100 100 100 100 99 100 100 100 100
5 5 22 52 72 96 97 41 5 5 5 0 0 0 0 0 0 2 0 5 4 21 26 98 100 96 100 100 100 100 100 100 100 100 100 100 100 100 100 100 100 100 100
5 5 5 26 99 91 96 79 5 5 3 0 0 0 0 0 0 1 2 5 4 5 6 77 100 100 100 100 100 100 100 100 100 100 100 100 100 100 100 100 100 100 100
5 5 5 5 5 47 19 12 28 6 5 0 0 0 0 5 0 4 0 2 5 2 13 2 22 100 100 100 100 100 100 100 100 100 100 100 100 100 100 100 100 100 92
5 5 5 5 5 5 5 5 5 5 5 0 0 0 0 2 3 5 2 5 1 1 3 48 46 100 100 100 100 100 100 100 100 100 100 100 100 100 100 100 100 100 100
5 5 5 5 5 5 5 5 5 5 5 0 0 0 0 4 0 4 5 5 5 5 5 10 100 97 100 100 100 35 88 100 100 100 100 100 100 100 100 100 100 98 87
5 5 5 5 5 5 5 5 5 5 5 5 3 0 0 0 0 0 0 5 5 4 5 4 8 49 100 95 80 2 1 38 99 100 100 100 100 100 100 100 100 100 100
5 5 5 5 5 5 5 5 5 5 5 5 5 5 0 0 0 0 0 0 5 5 5 5 5 11 19 100 100 42 0 10 100 100 100 100 100 100 100 100 100 100 100
5 21 63 14 5 5 5 5 5 5 5 5 5 5 0 0 0 0 0 1 5 5 5 5 5 4 10 30 12 5 0 75 63 100 100 100 100 100 100 100 100 100 100
95 89 100 71 5 5 5 5 5 5 5 5 5 2 0 0 0 0 0 3 5 4 3 3 1 3 3 2 0 0 4 4 13 36 80 100 100 100 100 100 100 100 100
45 39 65 69 100 91 5 5 3 0 5 5 2 0 0 0 0 0 0 5 5 4 1 2 5 0 5 11 5 1 5 3 3 1 4 53 100 100 100 100 100 100 100
100 100 90 96 99 16 100 24 5 5 5 3 0 0 0 0 0 0 0 1 5 5 5 4 5 5 2 41 8 98 37 5 8 5 2 4 52 44 99 100 100 100 100
90 100 100 100 100 98 8 88 10 5 5 0 0 1 0 0 0 0 1 1 5 5 5 1 4 5 5 3 78 100 100 100 100 72 16 10 13 20 8 100 100 100 100
5 10 33 86 100 67 100 25 80 5 5 4 5 5 5 5 1 0 1 5 5 5 4 4 5 5 5 5 72 100 100 100 100 100 100 100 100 82 98 100 100 100 100
5 5 5 15 20 100 100 31 81 51 27 5 5 12 9 5 5 5 2 5 5 5 5 5 40 90 43 15 100 100 100 100 100 100 100 100 39 100 100 100 100 100 100
34 86 100 70 100 100 100 65 100 100 100 100 90 80 100 48 10 8 5 5 5 5 5 5 5 5 15 51 44 96 87 93 100 100 99 80 96 100 100 100 100 100 100
21 72 100 100 100 100 94 100 100 100 100 100 100 100 100 100 73 68 6 5 5 5 5 5 5 8 37 38 92 86 75 91 100 100 69 98 100 100 100 100 100 98 100
98 100 100 100 100 48 75 100 100 100 100 100 100 100 100 100 100 65 45 5 5 5 5 5 5 5 85 100 100 100 100 100 100 76 94 100 100 100 100 100 100 100 100